Volver al catálogo

STARLINK-2088

ActivoComunicacionesVLEO
NORAD 47371·PAYLOAD·🇺🇸 United States

Lanzado Jan 20, 2021 desde Cape Canaveral Space Force Station

Loading…

Próximos Pases (próximas 24 horas)

TLE

ActualizadoSource: CelesTrak SupGP

Época: Sep 15, 2026, 01:01 UTC

1 47371C 21005Y   26258.04284722  .00017772  00000+0  57162-3 0  2587
2 47371  53.1588 265.1409 0001246  85.4726 325.3027 15.31686392    13

Sigue STARLINK-2088 en tiempo real con AllMySat

Download on the App Store